Simultaneous Nadir Overpasses (SNOs) Predictions

Prediction of SNOs between NOAA-19 and TERRA Satellite Orbit:

Table of predicted SNOs for the next 14.0 days since TLE Epoch: 8/11/2018
Index Date (NOAA-19) Time (NOAA-19) Lat,Lon (NOAA-19) SZA (NOAA-19 ) Date (TERRA) Time (TERRA) Lat,Lon (TERRA) SZA (TERRA ) Distance(km) Time Diff (sec)
1 08/11/2018 07:26:07 -77.79, -96.53 117.16 08/11/2018 07:27:12 -77.71, -92.99 117.00 84.21 65
2 08/11/2018 08:17:02 77.33, 73.05 62.55 08/11/2018 08:16:46 77.34, 73.14 62.57 2.61 16
3 08/13/2018 13:50:30 -77.35, 169.65 116.76 08/13/2018 13:50:30 -77.35, 169.73 116.75 2.03 0
4 08/15/2018 19:24:09 77.33, -93.61 63.94 08/15/2018 19:24:13 77.34, -93.72 63.94 2.76 4
5 08/15/2018 20:14:54 -76.94, 75.50 116.30 08/15/2018 20:13:47 -77.03, 72.71 116.43 70.53 67
6 08/18/2018 00:57:37 -77.35, 3.02 115.33 08/18/2018 00:57:57 -77.35, 2.90 115.33 2.89 20
7 08/18/2018 01:48:37 77.10, 171.45 64.53 08/18/2018 01:47:27 77.16, 169.78 64.45 42.01 70
8 08/20/2018 06:31:16 77.36, 99.65 65.42 08/20/2018 06:31:39 77.39, 99.62 65.45 3.92 23
9 08/20/2018 07:22:11 -77.35, -93.05 114.58 08/20/2018 07:21:08 -77.32, -93.05 114.63 4.20 63
10 08/22/2018 12:04:45 -77.40,-163.84 113.81 08/22/2018 12:05:23 -77.41,-163.74 113.78 2.89 38
11 08/22/2018 12:55:49 77.33, 3.72 66.17 08/22/2018 12:54:50 77.35, 3.67 66.17 2.54 59
12 08/24/2018 17:38:23 77.39, -67.15 66.97 08/24/2018 17:39:06 77.40, -67.20 66.98 1.61 43




NCC Satellite Simultaneous Nadir Overpasses (SNOs) Prediction Service
